| time (UTC) | temp F | wind direction | speed MPH | gust MPH | rain 1hr in | rain 24hr in | rain mn in | humidity % | barometer mb |
| 20260901010043 | 94 | 100 | 0.0 | 0.0 | 0.00 | 0.03 | 0.01 | 27 | |
| 20260901004544 | 95 | 100 | 0.0 | 0.0 | 0.00 | 0.03 | 0.01 | 26 | |
| 20260901003051 | 96 | 100 | 0.0 | 0.0 | 0.00 | 0.03 | 0.01 | 24 | |
| 20260901001604 | 97 | 100 | 0.0 | 1.0 | 0.00 | 0.03 | 0.01 | 23 | |
| 20260901000050 | 98 | 100 | 0.0 | 1.0 | 0.00 | 0.03 | 0.01 | 22 | |
| 20260831234556 | 98 | 100 | 0.0 | 2.0 | 0.00 | 0.03 | 0.01 | 22 | |
| 20260831233054 | 99 | 124 | 0.0 | 3.0 | 0.00 | 0.03 | 0.01 | 21 | |
| 20260831231555 | 99 | 168 | 1.0 | 4.0 | 0.00 | 0.03 | 0.01 | 21 | |
| 20260831230057 | 100 | 107 | 2.0 | 4.0 | 0.00 | 0.03 | 0.01 | 20 | |
| 20260831224559 | 100 | 171 | 1.0 | 4.0 | 0.00 | 0.03 | 0.01 | 21 | |
| 20260831223101 | 101 | 104 | 0.0 | 3.0 | 0.00 | 0.03 | 0.01 | 19 | |
| 20260831221503 | 101 | 172 | 0.0 | 4.0 | 0.00 | 0.03 | 0.01 | 19 | |
| 20260831220004 | 101 | 177 | 0.0 | 5.0 | 0.00 | 0.03 | 0.01 | 20 | |
| 20260831214506 | 102 | 150 | 2.0 | 8.0 | 0.00 | 0.03 | 0.01 | 19 | |
| 20260831213011 | 102 | 169 | 3.0 | 8.0 | 0.00 | 0.03 | 0.01 | 19 | |
| 20260831211511 | 102 | 185 | 1.0 | 6.0 | 0.00 | 0.03 | 0.01 | 20 | |
| 20260831210007 | 102 | 167 | 1.0 | 4.0 | 0.00 | 0.03 | 0.01 | 21 | |
| 20260831204506 | 101 | 237 | 3.0 | 7.0 | 0.00 | 0.03 | 0.01 | 21 | |
| 20260831203003 | 101 | 108 | 1.0 | 5.0 | 0.00 | 0.03 | 0.01 | 22 | |
| 20260831201504 | 101 | 187 | 2.0 | 7.0 | 0.00 | 0.03 | 0.01 | 20 | |
| 20260831200004 | 100 | 241 | 2.0 | 6.0 | 0.00 | 0.03 | 0.01 | 22 | |
| 20260831194506 | 100 | 169 | 0.0 | 6.0 | 0.00 | 0.03 | 0.01 | 25 | |
| 20260831193009 | 99 | 90 | 1.0 | 4.0 | 0.00 | 0.03 | 0.01 | 23 | |
| 20260831191514 | 100 | 225 | 1.0 | 4.0 | 0.00 | 0.03 | 0.01 | 23 | |
| 20260831190005 | 99 | 215 | 2.0 | 5.0 | 0.00 | 0.03 | 0.01 | 25 | |
| 20260831184512 | 99 | 139 | 1.0 | 4.0 | 0.00 | 0.03 | 0.01 | 24 | |
| 20260831183014 | 99 | 146 | 1.0 | 5.0 | 0.00 | 0.03 | 0.01 | 25 | |
| 20260831181513 | 98 | 236 | 1.0 | 5.0 | 0.00 | 0.03 | 0.01 | 27 | |
| 20260831180014 | 97 | 235 | 1.0 | 5.0 | 0.00 | 0.03 | 0.01 | 30 | |
| 20260831174513 | 96 | 227 | 1.0 | 4.0 | 0.00 | 0.03 | 0.01 | 30 | |
| 20260831173016 | 94 | 109 | 1.0 | 5.0 | 0.00 | 0.03 | 0.01 | 32 | |
| 20260831171515 | 93 | 231 | 1.0 | 3.0 | 0.00 | 0.03 | 0.01 | 34 | |
| 20260831170015 | 91 | 253 | 1.0 | 4.0 | 0.00 | 0.03 | 0.01 | 35 | |
| 20260831164511 | 90 | 237 | 0.0 | 4.0 | 0.00 | 0.03 | 0.01 | 36 | |
| 20260831163008 | 89 | 238 | 1.0 | 5.0 | 0.00 | 0.03 | 0.01 | 37 | |
| 20260831161506 | 88 | 236 | 1.0 | 4.0 | 0.00 | 0.03 | 0.01 | 39 | |
| 20260831160008 | 87 | 232 | 2.0 | 6.0 | 0.00 | 0.03 | 0.01 | 40 | |
| 20260831154507 | 85 | 224 | 2.0 | 5.0 | 0.00 | 0.03 | 0.01 | 42 | |
| 20260831153004 | 84 | 249 | 1.0 | 4.0 | 0.00 | 0.03 | 0.01 | 44 | |
| 20260831151503 | 83 | 256 | 0.0 | 4.0 | 0.00 | 0.03 | 0.01 | 48 | |
| 20260831150003 | 82 | 233 | 1.0 | 5.0 | 0.00 | 0.03 | 0.01 | 49 | |
| 20260831144506 | 81 | 279 | 0.0 | 4.0 | 0.00 | 0.03 | 0.01 | 53 | |
| 20260831143010 | 80 | 266 | 1.0 | 5.0 | 0.00 | 0.03 | 0.01 | 56 | |
| 20260831141510 | 79 | 227 | 1.0 | 5.0 | 0.00 | 0.03 | 0.01 | 57 | |
| 20260831140013 | 79 | 221 | 1.0 | 4.0 | 0.00 | 0.03 | 0.01 | 59 | |
| 20260831134513 | 78 | 225 | 0.0 | 3.0 | 0.00 | 0.03 | 0.01 | 61 | |
| 20260831133021 | 77 | 236 | 0.0 | 2.0 | 0.00 | 0.03 | 0.01 | 61 | |
| 20260831131510 | 77 | 236 | 0.0 | 3.0 | 0.00 | 0.03 | 0.01 | 62 | |
| 20260831130015 | 77 | 246 | 0.0 | 0.0 | 0.00 | 0.03 | 0.01 | 61 | |
| 20260831124534 | 77 | 246 | 0.0 | 0.0 | 0.00 | 0.03 | 0.01 | 60 | |
| 20260831123017 | 77 | 246 | 0.0 | 0.0 | 0.00 | 0.03 | 0.01 | 59 | |
| 20260831121520 | 78 | 246 | 0.0 | 0.0 | 0.01 | 0.03 | 0.01 | 58 | |
| 20260831120024 | 78 | 247 | 0.0 | 0.0 | 0.01 | 0.03 | 0.01 | 57 | 1089.0 |
| 20260831114538 | 79 | 248 | 0.0 | 2.0 | 0.01 | 0.03 | 0.01 | 55 | 1089.0 |
| 20260831113028 | 80 | 248 | 0.0 | 2.0 | 0.01 | 0.03 | 0.01 | 54 | 1089.0 |
| 20260831111527 | 81 | 259 | 0.0 | 2.0 | 0.00 | 0.02 | 0.00 | 53 | 1089.0 |
| 20260831110022 | 81 | 259 | 0.0 | 2.0 | 0.00 | 0.02 | 0.00 | 52 | 1089.0 |
| 20260831104532 | 81 | 259 | 0.0 | 1.0 | 0.00 | 0.02 | 0.00 | 52 | 1089.0 |
| 20260831103023 | 81 | 261 | 0.0 | 3.0 | 0.00 | 0.02 | 0.00 | 51 | 1089.0 |
| 20260831101524 | 82 | 226 | 1.0 | 4.0 | 0.00 | 0.02 | 0.00 | 51 | 1089.0 |
| 20260831100025 | 82 | 234 | 0.0 | 2.0 | 0.00 | 0.02 | 0.00 | 51 | 1089.0 |
| 20260831094524 | 82 | 233 | 0.0 | 0.0 | 0.00 | 0.02 | 0.00 | 50 | 1089.0 |
| 20260831093037 | 82 | 233 | 0.0 | 0.0 | 0.00 | 0.02 | 0.00 | 50 | 1089.0 |
| 20260831091533 | 82 | 233 | 0.0 | 3.0 | 0.00 | 0.02 | 0.00 | 50 | 1089.0 |
| 20260831090034 | 81 | 231 | 0.0 | 0.0 | 0.00 | 0.02 | 0.00 | 50 | 1089.0 |
| 20260831084538 | 82 | 231 | 0.0 | 0.0 | 0.00 | 0.02 | 0.00 | 49 | 1089.0 |
| 20260831083043 | 82 | 231 | 0.0 | 2.0 | 0.00 | 0.02 | 0.00 | 48 | 1089.0 |
| 20260831081538 | 81 | 231 | 0.0 | 3.0 | 0.00 | 0.02 | 0.00 | 49 | 1089.0 |
| 20260831080035 | 81 | 274 | 0.0 | 6.0 | 0.00 | 0.02 | 0.00 | 49 | 1089.0 |
| 20260831074539 | 79 | 234 | 1.0 | 3.0 | 0.00 | 0.02 | 0.00 | 51 | 1089.0 |
| 20260831073046 | 78 | 229 | 1.0 | 5.0 | 0.00 | 0.02 | 0.00 | 52 | 1089.0 |
| 20260831071535 | 78 | 227 | 2.0 | 4.0 | 0.00 | 0.02 | 0.00 | 54 | 1089.0 |
| 20260831070044 | 77 | 177 | 0.0 | 3.0 | 0.00 | 0.02 | 0.00 | 54 | 1089.0 |
| 20260831064539 | 76 | 164 | 0.0 | 1.0 | 0.00 | 0.02 | 0.00 | 56 | 1089.0 |
| 20260831063038 | 76 | 164 | 0.0 | 0.0 | 0.00 | 0.02 | 0.00 | 57 | 1089.0 |
| 20260831061537 | 76 | 164 | 0.0 | 0.0 | 0.00 | 0.02 | 0.00 | 57 | 1089.0 |
| 20260831060041 | 77 | 164 | 0.0 | 0.0 | 0.00 | 0.02 | 0.00 | 56 | 1089.0 |
| 20260831054533 | 78 | 164 | 0.0 | 0.0 | 0.01 | 0.02 | 0.00 | 56 | 1089.0 |
| 20260831053037 | 78 | 164 | 0.0 | 0.0 | 0.02 | 0.03 | 0.02 | 54 | 1089.0 |
| 20260831051538 | 80 | 164 | 0.0 | 0.0 | 0.02 | 0.03 | 0.02 | 51 | 1089.0 |
| 20260831050057 | 82 | 164 | 0.0 | 0.0 | 0.02 | 0.03 | 0.02 | 48 | 1089.0 |
| 20260831044600 | 84 | 164 | 0.0 | 1.0 | 0.01 | 0.02 | 0.01 | 46 | 1089.0 |
| 20260831043043 | 85 | 164 | 0.0 | 0.0 | 0.00 | 0.01 | 0.00 | 42 | 1089.0 |
| 20260831041602 | 85 | 164 | 0.0 | 0.0 | 0.00 | 0.01 | 0.00 | 43 | 1089.0 |
| 20260831040048 | 86 | 164 | 0.0 | 0.0 | 0.00 | 0.01 | 0.00 | 42 | 1089.0 |
| 20260831034553 | 86 | 164 | 0.0 | 0.0 | 0.00 | 0.01 | 0.00 | 41 | 1089.0 |
| 20260831033054 | 87 | 164 | 0.0 | 0.0 | 0.00 | 0.01 | 0.00 | 40 | 1089.0 |
| 20260831031603 | 87 | 164 | 0.0 | 0.0 | 0.00 | 0.01 | 0.00 | 39 | 1089.0 |
| 20260831030106 | 88 | 164 | 0.0 | 0.0 | 0.00 | 0.01 | 0.00 | 38 | 1089.0 |
| 20260831024502 | 88 | 164 | 0.0 | 0.0 | 0.00 | 0.01 | 0.00 | 39 | 1089.0 |
| 20260831023009 | 89 | 164 | 0.0 | 0.0 | 0.00 | 0.01 | 0.00 | 35 | 1089.0 |
| 20260831021512 | 90 | 164 | 0.0 | 0.0 | 0.00 | 0.01 | 0.00 | 34 | 1089.0 |
| 20260831020015 | 91 | 164 | 0.0 | 0.0 | 0.00 | 0.01 | 0.00 | 31 | 1089.0 |
| 20260831014514 | 92 | 164 | 0.0 | 0.0 | 0.00 | 0.01 | 0.00 | 31 | 1089.0 |
| 20260831013013 | 93 | 164 | 0.0 | 0.0 | 0.00 | 0.01 | 0.00 | 28 | 1089.0 |
| 20260831011516 | 94 | 164 | 0.0 | 0.0 | 0.00 | 0.01 | 0.00 | 26 | 1089.0 |